カタログに戻る

JILIN-1 GAOFEN 06A 20 XING

運用中科学SSO
NORAD 57031·PAYLOAD·🇨🇳 China
この衛星名は、まだ公式ソースで確認されていません。

打ち上げ Jun 15, 2023 から Taiyuan Satellite Launch Center

Loading…

次のパス (今後24時間)

TLE

最新Source: Space-Track

元期: Sep 14, 2026, 14:29 UTC

1 57031U 23085AD  26257.60382552  .00014103  00000-0  38853-3 0  9996
2 57031  97.5026  11.8793 0009068 117.4186 242.7981 15.37213763180502

AllMySatでJILIN-1 GAOFEN 06A 20 XINGをリアルタイム追跡

Download on the App Store